Home   Weather   Jodhpur   Past weeks

Flag for India Past Weather in Jodhpur, Rajasthan, India — Yesterday and Last 2 Weeks

Now
79 °F

Haze.


Feels Like: 79 °F
Forecast: 58 / 85 °F
Wind: 5 mph from West

Location: Jaipur / Sanganer

Current Time: Dec 9, 2016 at 1:17:03 pm

Latest Report: Dec 9, 2016 at 12:30 pm


Visibility: 3 mi

Pressure: 29.98 "Hg

Humidity: 32%

Dew Point: 46 °F

Location of JodhpurLocation

Past Weather in Jodhpur — Graph

°F

Jodhpur Temperature Yesterday

Maximum temperature yesterday: 84 °F (at 3:00 pm)
Minimum temperature yesterday: 54 °F (at 6:00 am)
Average temperature yesterday: 70 °F

High & Low Weather Summary for the Past Weeks

 TemperatureHumidityPressure
High88 °F (Nov 29, 2:30 pm)100% (Dec 5, 12:00 am)30.24 "Hg (Dec 5, 12:00 am)
Low52 °F (Dec 4, 6:30 am)14% (Nov 24, 3:30 pm)29.92 "Hg (Nov 29, 2:30 pm)
Average70 °F41%30.05 "Hg
* Reported Nov 24 11:30 am — Dec 9 12:00 pm, Jodhpur, Weather by CustomWeather, © 2016

Note: Actual official high and low records may vary slightly from our data, if they occured in-between our weather recording intervals... More about our weather records

Advertising

Jodhpur Weather History for the Previous 24 Hours

Scroll right to see more
 ConditionsComfort  
Time TempWeatherWind HumidityBarometerVisibility
12:00 pm
Fri, Dec 9
77 °FHaze.6 mph34%30.01 "Hg2 mi
11:00 am73 °FHaze.5 mph44%30.04 "Hg2 mi
10:00 am72 °FClear.3 mph53%30.04 "Hg1 mi
9:30 am70 °FClear.2 mph60%30.04 "Hg1 mi
9:00 am70 °FClear.No wind57%30.04 "Hg1 mi
8:30 am64 °FFog.No wind78%30.04 "Hg1 mi
8:00 am59 °FFog.No wind88%30.04 "Hg1 mi
7:00 am55 °FFog.No wind94%30.01 "Hg1 mi
6:30 am57 °FFog.No wind88%29.98 "Hg1 mi
6:00 am57 °FFog.No wind88%29.98 "Hg1 mi
5:30 am57 °FFog.No wind94%29.98 "Hg1 mi
5:00 am57 °FFog.No wind100%29.98 "Hg1 mi
4:00 am57 °FFog.No wind88%29.98 "Hg1 mi
3:00 am59 °FFog.No wind88%29.98 "Hg1 mi
2:30 am59 °FFog.No wind88%29.98 "Hg1 mi
2:00 am59 °FFog.No wind88%29.98 "Hg1 mi
1:00 am59 °FFog.No wind88%30.01 "Hg1 mi
12:00 am61 °FFog.No wind83%30.01 "Hg1 mi
11:30 pm
Thu, Dec 8
61 °FFog.No wind77%30.04 "Hg1 mi
11:00 pm64 °FClear.3 mph73%30.04 "Hg1 mi
10:30 pm64 °FClear.No wind68%30.04 "Hg1 mi
10:00 pm64 °FClear.3 mph68%30.04 "Hg1 mi
9:30 pm66 °FClear.6 mph68%30.04 "Hg1 mi
9:00 pm66 °FClear.5 mph64%30.04 "Hg1 mi
7:30 pm70 °FClear.2 mph46%30.01 "Hg1 mi
7:00 pm72 °FHaze.No wind38%30.01 "Hg2 mi
6:30 pm72 °FHaze.No wind41%30.01 "Hg2 mi
6:00 pm75 °FHaze.2 mph31%29.98 "Hg2 mi
4:30 pm82 °FHaze.6 mph23%29.98 "Hg2 mi
4:00 pm82 °FHaze.6 mph23%29.98 "Hg2 mi
3:00 pm84 °FHaze.6 mph20%29.98 "Hg2 mi
2:30 pm82 °FHaze.5 mph26%30.01 "Hg2 mi
2:00 pm82 °FHaze.5 mph26%30.01 "Hg2 mi
1:00 pm81 °FClear.6 mph30%30.04 "Hg1 mi
Weather by CustomWeather, © 2016

See weather overviewHow to use our weather pages